Weather History for Mammoth, CA

Change the Weather History Date:

Monday, October 28, 2013

  Actual Average Record
Temperature  
Mean Temperature 33 °F -  
Max Temperature 42 °F 50 °F 77 °F (2003)
Min Temperature 21 °F 34 °F 17 °F (2011)
Degree Days  
Heating Degree Days 32    
Moisture  
Dew Point 21 °F    
Average Humidity 66    
Maximum Humidity 100    
Minimum Humidity 35    
Precipitation  
Precipitation 0.05 in - - ()
Sea Level Pressure  
Sea Level Pressure 29.65 in    
Wind  
Wind Speed 10 mph (West)    
Max Wind Speed 23 mph    
Max Gust Speed 50 mph    
Visibility 8 miles    
Events Snow    
Averages and records for this station are not official NWS values.
T = Trace of Precipitation, MM = Missing Value Source: NWS Daily Summary

Daily Weather History Graph

Daily Weather History Graph

Search for Another Location

Airport:

Trip Planner

Search our weather history database for the weather conditions in past years. The results will help you decide how hot, cold, wet, or windy it might be!

Date:

Astronomy

Oct. 28, 2013 Rise Set
Actual Time 7:16 AM PDT 6:00 PM PDT
Civil Twilight 6:49 AM PDT 6:27 PM PDT
Nautical Twilight 6:18 AM PDT 6:58 PM PDT
Astronomical Twilight 5:48 AM PDT 7:29 PM PDT
Moon 1:20 AM PDT (10/28) 2:39 PM PDT (10/28)
Length of Visible Light 11h 38m
Length of Day
10h 44m
Waning Crescent, 33% of the Moon is Illuminated
Oct 28
Waning Crescent
Nov 3
New
Nov 9
First Quarter
Nov 17
Full
Nov 25
Last Quarter

Hourly Weather History & Observations

Time (PDT) Temp. Windchill Dew Point Humidity Pressure Visibility Wind Dir Wind Speed Gust Speed Precip Events Conditions
12:15 AM 42.8 °F 36.6 °F 19.4 °F 39% 29.57 in 10.0 mi SSW 11.5 mph 29.9 mph N/A   Overcast
12:35 AM 42.8 °F 37.0 °F 19.4 °F 39% 29.56 in 10.0 mi SW 10.4 mph 21.9 mph N/A   Mostly Cloudy
12:55 AM 42.8 °F 35.4 °F 17.6 °F 36% 29.56 in 10.0 mi WSW 15.0 mph 24.2 mph N/A   Overcast
1:15 AM 41.0 °F 31.4 °F 15.8 °F 36% 29.55 in 10.0 mi West 21.9 mph 39.1 mph N/A   Overcast
1:35 AM 39.2 °F 33.0 °F 17.6 °F 42% 29.56 in 10.0 mi West 9.2 mph 32.2 mph N/A   Mostly Cloudy
1:55 AM 39.2 °F 31.6 °F 14.0 °F 36% 29.57 in 10.0 mi WSW 12.7 mph 27.6 mph N/A   Scattered Clouds
2:15 AM 37.4 °F 26.6 °F 14.0 °F 38% 29.56 in 10.0 mi WSW 21.9 mph 44.9 mph N/A   Scattered Clouds
2:35 AM 37.4 °F 28.9 °F 12.2 °F 36% 29.56 in 10.0 mi SW 13.8 mph 31.1 mph N/A   Scattered Clouds
2:55 AM 35.6 °F 24.5 °F 10.4 °F 35% 29.55 in 10.0 mi WSW 20.7 mph 28.8 mph N/A   Clear
3:15 AM 35.6 °F 24.0 °F 12.2 °F 38% 29.55 in 10.0 mi West 23.0 mph 40.3 mph N/A   Scattered Clouds
3:35 AM 35.6 °F 25.2 °F 14.0 °F 41% 29.55 in 10.0 mi West 18.4 mph 43.7 mph N/A   Overcast
3:55 AM 33.8 °F 23.2 °F 14.0 °F 44% 29.54 in 10.0 mi WSW 17.3 mph 49.5 mph N/A   Overcast
4:15 AM 33.8 °F 23.9 °F 15.8 °F 48% 29.52 in 10.0 mi SW 15.0 mph 40.3 mph N/A   Mostly Cloudy
4:35 AM 33.8 °F 27.7 °F 17.6 °F 52% 29.53 in 10.0 mi SSW 6.9 mph 19.6 mph N/A   Overcast
4:55 AM 32.0 °F 23.6 °F 23.0 °F 69% 29.55 in 7.0 mi West 10.4 mph 28.8 mph N/A Snow Light Snow
5:15 AM 30.2 °F 23.4 °F 23.0 °F 75% 29.53 in 10.0 mi NW 6.9 mph - N/A   Overcast
5:35 AM 32.0 °F - 17.6 °F 55% 29.53 in 10.0 mi Calm Calm - N/A   Overcast
5:55 AM 32.0 °F 25.6 °F 15.8 °F 51% 29.54 in 10.0 mi SW 6.9 mph 11.5 mph N/A   Mostly Cloudy
6:15 AM 33.8 °F 25.3 °F 14.0 °F 44% 29.54 in 10.0 mi West 11.5 mph 23.0 mph N/A   Scattered Clouds
6:35 AM 33.8 °F 23.5 °F 12.2 °F 41% 29.54 in 10.0 mi WSW 16.1 mph 25.3 mph N/A   Mostly Cloudy
6:55 AM 33.8 °F 25.8 °F 14.0 °F 44% 29.55 in 10.0 mi SW 10.4 mph 21.9 mph N/A   Mostly Cloudy
7:15 AM 30.2 °F 24.3 °F 21.2 °F 69% 29.55 in 10.0 mi North 5.8 mph - N/A   Overcast
7:35 AM 32.0 °F 24.2 °F 19.4 °F 60% 29.57 in 5.0 mi NW 9.2 mph 16.1 mph N/A Snow Light Snow
7:55 AM 30.2 °F 25.4 °F 23.0 °F 75% 29.58 in 10.0 mi North 4.6 mph - N/A   Overcast
8:15 AM 32.0 °F 27.5 °F 21.2 °F 64% 29.58 in 7.0 mi North 4.6 mph - N/A Snow Light Snow
8:35 AM 32.0 °F 28.7 °F 21.2 °F 64% 29.59 in 10.0 mi NE 3.5 mph - N/A   Overcast
8:55 AM 32.0 °F 28.7 °F 23.0 °F 69% 29.60 in 7.0 mi North 3.5 mph - N/A Snow Light Snow
9:15 AM 32.0 °F 24.2 °F 24.8 °F 75% 29.62 in 4.0 mi NW 9.2 mph - N/A Snow Light Snow
9:35 AM 30.2 °F 25.4 °F 24.8 °F 80% 29.63 in 3.0 mi NNW 4.6 mph - N/A Snow Light Snow
9:55 AM 30.2 °F 23.4 °F 26.6 °F 86% 29.63 in 0.8 mi West 6.9 mph - N/A Snow Snow
10:15 AM 28.4 °F - 26.6 °F 93% 29.63 in 0.8 mi Calm Calm - N/A Snow Light Snow
10:35 AM 30.2 °F 25.4 °F 28.4 °F 93% 29.63 in 0.5 mi NNE 4.6 mph - N/A Snow Light Snow
10:55 AM 30.2 °F 23.4 °F 28.4 °F 93% 29.64 in 1.2 mi North 6.9 mph - N/A Snow Light Snow
11:15 AM 30.2 °F 26.7 °F 28.4 °F 93% 29.66 in 3.0 mi North 3.5 mph - N/A Snow Light Snow
11:35 AM 30.2 °F 22.6 °F 28.4 °F 93% 29.66 in 0.2 mi NNW 8.1 mph - 0.01 in Snow Heavy Snow
11:55 AM 28.4 °F - 28.4 °F 100% 29.66 in 0.2 mi Calm Calm - 0.03 in Snow Heavy Snow
12:15 PM 30.2 °F 23.4 °F 26.6 °F 86% 29.67 in 0.5 mi NNW 6.9 mph - N/A Snow Snow
12:35 PM 28.4 °F 19.1 °F 26.6 °F 93% 29.68 in 0.2 mi West 10.4 mph - 0.01 in Snow Snow
12:55 PM 28.4 °F 22.2 °F 26.6 °F 93% 29.67 in 0.2 mi West 5.8 mph - 0.02 in Snow Heavy Snow
1:15 PM 32.0 °F 28.7 °F 28.4 °F 87% 29.67 in 1.8 mi NW 3.5 mph - N/A Snow Light Snow
1:35 PM 32.0 °F 26.4 °F 24.8 °F 75% 29.66 in 10.0 mi SSE 5.8 mph - N/A   Overcast
1:55 PM 32.0 °F 27.5 °F 24.8 °F 75% 29.66 in 10.0 mi West 4.6 mph - N/A   Overcast
2:15 PM 33.8 °F 23.2 °F 26.6 °F 75% 29.68 in 7.0 mi WNW 17.3 mph - N/A   Overcast
2:35 PM 30.2 °F 20.2 °F 26.6 °F 86% 29.68 in 1.5 mi West 12.7 mph 21.9 mph N/A Snow Light Snow
2:55 PM 32.0 °F 28.7 °F 24.8 °F 75% 29.67 in 10.0 mi West 3.5 mph - N/A   Mostly Cloudy
3:15 PM 33.8 °F 27.0 °F 26.6 °F 75% 29.66 in 10.0 mi West 8.1 mph - N/A   Clear
3:35 PM 35.6 °F 26.2 °F 21.2 °F 56% 29.67 in 10.0 mi WNW 15.0 mph 19.6 mph N/A   Clear
3:55 PM 35.6 °F 27.5 °F 23.0 °F 60% 29.67 in 10.0 mi NNW 11.5 mph - N/A   Clear
4:15 PM 35.6 °F 32.8 °F 19.4 °F 52% 29.68 in 10.0 mi West 3.5 mph - N/A   Clear
4:35 PM 35.6 °F 29.2 °F 17.6 °F 48% 29.68 in 10.0 mi WSW 8.1 mph - N/A   Clear
4:55 PM 35.6 °F 27.1 °F 19.4 °F 52% 29.68 in 10.0 mi SW 12.7 mph 20.7 mph N/A   Clear
5:15 PM 33.8 °F 24.3 °F 19.4 °F 56% 29.68 in 10.0 mi SSW 13.8 mph 23.0 mph N/A   Clear
5:35 PM 32.0 °F 23.0 °F 17.6 °F 55% 29.68 in 10.0 mi SSW 11.5 mph 23.0 mph N/A   Clear
5:55 PM 32.0 °F 24.2 °F 17.6 °F 55% 29.69 in 10.0 mi SW 9.2 mph 20.7 mph N/A   Clear
6:15 PM 30.2 °F 25.4 °F 21.2 °F 69% 29.70 in 10.0 mi SSE 4.6 mph - N/A   Scattered Clouds
6:35 PM 30.2 °F 23.4 °F 19.4 °F 64% 29.71 in 10.0 mi SSW 6.9 mph - N/A   Overcast
6:55 PM 30.2 °F 23.4 °F 21.2 °F 69% 29.72 in 10.0 mi SW 6.9 mph - N/A   Mostly Cloudy
7:15 PM 32.0 °F 23.6 °F 19.4 °F 60% 29.73 in 10.0 mi SW 10.4 mph 16.1 mph N/A   Mostly Cloudy
7:35 PM 30.2 °F 26.7 °F 19.4 °F 64% 29.73 in 10.0 mi WSW 3.5 mph - N/A   Mostly Cloudy
7:55 PM 30.2 °F 23.4 °F 19.4 °F 64% 29.73 in 10.0 mi WSW 6.9 mph - N/A   Scattered Clouds
8:15 PM 30.2 °F 25.4 °F 21.2 °F 69% 29.74 in 10.0 mi SE 4.6 mph - N/A   Scattered Clouds
8:35 PM 28.4 °F - 21.2 °F 74% 29.75 in 10.0 mi Calm Calm - N/A   Scattered Clouds
8:55 PM 26.6 °F 20.0 °F 21.2 °F 80% 29.76 in 10.0 mi South 5.8 mph - N/A   Scattered Clouds
9:15 PM 26.6 °F 20.0 °F 21.2 °F 80% 29.77 in 10.0 mi East 5.8 mph - N/A   Clear
9:35 PM 26.6 °F 21.2 °F 21.2 °F 80% 29.77 in 10.0 mi East 4.6 mph - N/A   Clear
9:55 PM 26.6 °F 18.2 °F 21.2 °F 80% 29.78 in 10.0 mi ESE 8.1 mph - N/A   Clear
10:15 PM 26.6 °F 16.2 °F 21.2 °F 80% 29.78 in 10.0 mi ESE 11.5 mph - N/A   Clear
10:35 PM 26.6 °F 18.2 °F 23.0 °F 86% 29.79 in 10.0 mi ESE 8.1 mph - N/A   Scattered Clouds
10:55 PM 26.6 °F 19.1 °F 21.2 °F 80% 29.79 in 10.0 mi ESE 6.9 mph - N/A   Clear
11:15 PM 26.6 °F - 21.2 °F 80% 29.81 in 10.0 mi North - - N/A   Scattered Clouds
11:35 PM 24.8 °F 20.5 °F 19.4 °F 80% 29.81 in 10.0 mi SSW 3.5 mph - N/A   Scattered Clouds
11:55 PM 21.2 °F - 19.4 °F 93% 29.82 in 10.0 mi North - - N/A   Mostly Cloudy